CAPE
0 0 0 0 0 0 0 0 0 0 0 0 0 0 0 0 0 0 0 0 0 0 0 0 0 0 0 0 0 51 756 1845 1947 1913 1915 1966 1867 1803 1702 1790 1880 1655 1526 1351
0 0 0 0 0 0 0 0 0 0 0 0 0 0 0 0 0 0 0 0 0 0 0 0 0 0 0 0 0 0 251 1568 2033 2044 2192 2351 2349 2238 2060 1852 1903 1870 1813 1911
0 0 0 0 0 0 0 0 0 0 0 0 0 0 0 0 0 0 0 0 0 0 0 0 0 0 0 0 0 0 162 963 1919 2398 2453 1791 2252 2121 2252 2293 2258 2250 2080 2126
0 0 0 0 0 0 0 0 0 0 0 0 0 0 0 0 0 0 0 0 0 0 0 0 0 0 0 0 0 0 43 429 1316 2293 2363 2447 2547 2541 2582 2836 2897 2916 2486 2259
0 0 0 0 0 0 0 0 0 0 0 0 0 0 0 0 0 0 0 0 0 0 0 0 0 0 0 0 0 0 0 102 878 2045 2691 2757 2899 2858 2675 3001 3256 2967 2787 2511
0 0 0 0 0 0 0 0 0 0 0 0 0 0 0 0 0 0 0 0 0 0 0 0 0 0 0 0 0 0 0 92 208 1315 2221 3110 3269 2985 1777 1937 2383 2472 2466 2530
0 0 0 0 0 0 0 0 0 0 0 0 0 0 0 0 0 0 0 0 0 0 0 0 0 0 0 0 0 0 0 0 0 292 1552 2353 2947 2697 1956 1714 1912 1494 1271 1061
0 0 0 0 0 0 0 0 0 0 2 1 0 0 0 0 0 0 0 0 0 0 0 0 0 0 0 0 0 0 0 5 2 30 582 1637 1899 2024 1942 1543 1358 1205 1095 1053
0 0 0 0 0 0 0 0 0 0 0 1 0 0 0 0 0 0 0 0 0 0 0 0 0 0 0 0 0 0 0 10 32 74 461 1092 1251 1203 1143 1184 1043 910 806 553
0 0 0 0 0 0 0 0 1 3 2 9 1 3 0 2 1 0 0 0 0 0 0 0 0 0 0 0 0 0 0 1 21 94 255 539 450 405 400 508 514 582 513 463
0 0 0 0 0 0 2 4 4 4 15 22 12 6 1 0 0 0 0 0 0 0 0 0 0 0 0 0 0 0 0 13 85 49 97 103 32 23 88 253 505 830 977 797
0 4 11 0 0 0 0 0 7 82 58 24 37 3 0 0 0 0 0 0 0 0 0 0 0 0 0 0 0 0 1 0 1 135 192 166 235 223 319 366 414 717 1023 933
3 17 12 3 0 0 0 0 4 8 6 19 38 17 0 0 0 0 0 0 0 0 0 6 9 0 0 0 0 0 0 0 0 0 42 157 300 431 413 572 832 839 842 1069
13 19 12 16 12 36 30 22 15 10 43 11 22 0 0 0 0 0 0 0 0 0 0 0 0 0 0 0 0 0 0 0 0 0 0 8 189 250 40 307 526 922 829 945
16 29 15 14 14 23 2 0 0 3 5 7 0 0 0 0 0 0 0 0 0 0 0 0 0 0 0 0 0 0 0 0 0 0 0 0 0 1 27 40 433 687 869 806
40 17 22 7 0 0 0 0 0 0 0 0 0 0 0 0 0 0 0 0 0 0 0 0 0 0 0 0 0 0 0 0 0 0 0 0 0 0 1 34 189 438 389 636
33 29 19 2 0 0 0 0 0 0 0 0 1 9 1 1 0 0 0 0 0 0 0 0 0 0 0 0 0 0 0 0 0 0 0 0 0 0 0 0 7 188 414 546
13 11 9 8 12 1 0 0 0 0 1 35 40 29 13 2 0 0 0 0 0 0 0 0 0 1 1 3 0 1 0 0 0 0 0 0 0 0 0 0 0 2 167 451
1 7 10 17 17 0 0 12 7 2 0 0 2 4 0 0 0 0 0 0 0 1 2 4 5 9 20 17 12 11 7 8 3 0 0 0 0 0 0 0 0 0 0 46
1 10 19 20 14 8 0 4 0 0 5 0 0 0 7 5 10 1 9 1 0 8 15 17 34 21 19 19 43 26 31 20 12 4 0 0 0 0 0 0 0 0 0 0
14 27 10 8 19 4 0 0 0 23 10 1 6 12 11 18 19 10 13 14 15 22 32 23 29 36 10 29 29 27 12 18 22 4 6 7 8 8 8 7 5 5 6 2
54 22 12 15 19 13 3 1 12 10 0 11 14 13 16 21 10 2 2 19 11 23 16 12 23 25 12 18 11 13 22 14 19 12 10 9 6 5 0 3 1 3 9 7
59 31 23 60 47 0 0 0 0 0 11 9 14 4 12 14 9 16 25 19 17 30 15 18 19 9 8 8 20 21 11 11 12 13 11 10 12 9 8 11 9 10 23 14
4 7 41 18 0 0 0 0 0 7 4 11 13 16 17 38 32 29 44 23 34 13 11 15 22 13 14 10 9 16 14 17 18 16 14 12 14 12 13 11 7 7 9 17
2 1 6 14 4 0 0 2 0 0 3 10 12 15 19 32 34 41 33 23 18 8 17 16 22 15 13 15 14 14 14 15 15 16 14 14 13 15 15 14 9 6 2 3
2 32 66 24 8 2 2 0 1 11 15 16 24 13 8 30 39 35 13 15 10 9 11 21 21 13 12 9 7 8 12 13 15 15 17 17 15 14 18 15 13 0 0 0
CIN
0 0 0 0 0 0 0 0 0 0 0 0 0 0 0 0 0 0 0 0 0 0 0 0 0 0 0 0 0 -447 -258 -202 -163 -170 -189 -159 -175 -175 -180 -162 -144 -140 -133 -168
0 0 0 0 0 0 0 0 0 0 0 0 0 0 0 0 0 0 0 0 0 0 0 0 0 0 0 0 0 0 -372 -222 -189 -156 -150 -112 -153 -143 -154 -173 -164 -152 -148 -131
0 0 0 0 0 0 0 0 0 0 0 0 0 0 0 0 0 0 0 0 0 0 0 0 0 0 0 0 0 0 -380 -281 -202 -140 -98 -181 -124 -140 -121 -102 -119 -131 -147 -123
0 0 0 0 0 0 0 0 0 0 0 0 0 0 0 0 0 0 0 0 0 0 0 0 0 0 0 0 0 0 -443 -364 -232 -134 -101 -99 -84 -77 -92 -75 -74 -77 -104 -105
0 0 0 0 0 0 0 0 0 0 0 0 0 0 0 0 0 0 0 0 0 0 0 0 0 0 0 0 0 0 0 -411 -291 -147 -86 -72 -44 -41 -72 -66 -74 -94 -94 -98
0 0 0 0 0 0 0 0 0 0 0 0 0 0 0 0 0 0 0 0 0 0 0 0 0 0 0 0 0 0 0 -343 -340 -214 -122 -49 -45 -51 -144 -146 -108 -97 -96 -74
0 0 0 0 0 0 0 0 0 0 0 0 0 0 0 0 0 0 0 0 0 0 0 0 0 0 0 0 0 0 0 0 0 -300 -166 -95 -50 -74 -147 -182 -122 -175 -150 -154
0 0 0 0 0 0 0 0 0 0 0 0 0 0 0 0 0 0 0 0 0 0 0 0 0 0 0 0 0 0 0 -396 -377 -460 -303 -128 -105 -109 -120 -188 -180 -120 -111 -95
0 0 0 0 0 0 0 0 0 0 0 0 0 0 0 0 0 0 0 0 0 0 0 0 0 0 0 0 0 0 -18 -444 -443 -397 -232 -127 -145 -174 -174 -197 -208 -157 -178 -157
0 0 0 0 0 0 0 0 0 -6 -1 0 0 -1 -1 0 -1 0 0 0 0 0 0 0 0 0 0 0 0 0 0 -137 -409 -360 -259 -186 -243 -239 -237 -239 -240 -207 -220 -205
0 0 0 0 0 0 0 0 0 -4 0 0 0 0 -10 -6 0 0 0 0 0 0 0 0 0 -8 0 0 0 0 -74 -268 -211 -251 -264 -319 -432 -463 -406 -260 -191 -143 -136 -131
0 0 0 0 0 0 0 0 0 0 0 0 0 0 0 0 0 0 0 0 0 0 0 0 0 0 0 0 0 0 -336 0 -11 -151 -97 -143 -183 -216 -197 -227 -272 -188 -113 -101
0 0 0 0 0 0 0 0 -7 0 0 0 0 0 0 0 0 0 0 0 0 0 0 -15 -43 -1 0 0 0 0 0 0 0 0 -241 -121 -127 -148 -130 -120 -117 -151 -147 -86
-1 0 0 0 0 0 -6 -7 0 0 -3 0 0 0 0 0 0 0 0 0 0 0 0 0 0 0 0 0 0 0 0 0 0 0 0 -231 -212 -237 -213 -149 -127 -91 -178 -85
0 0 0 0 0 0 0 0 0 0 0 0 0 0 0 0 0 0 0 0 0 0 0 0 0 0 0 0 0 0 0 0 0 0 0 0 0 -282 -218 -176 -151 -139 -146 -124
0 0 0 0 0 0 0 0 0 0 0 0 0 0 0 0 0 0 0 0 0 0 0 0 0 0 0 0 0 0 0 0 0 0 0 0 0 0 -98 -220 -213 -180 -208 -180
0 0 0 0 0 0 0 0 0 0 0 0 0 0 -4 0 0 0 0 0 0 0 0 0 0 0 0 0 0 0 0 0 0 0 0 0 0 0 0 0 -220 -194 -199 -198
0 0 -1 0 0 0 0 0 0 0 -5 -4 0 0 0 0 0 0 0 0 0 0 0 0 0 0 0 0 0 0 0 0 0 0 0 0 0 0 0 0 0 -116 -162 -146
0 0 0 0 0 0 0 -8 0 0 0 -2 0 0 0 0 0 0 0 0 0 0 0 0 0 0 0 0 0 0 0 0 0 0 0 0 0 0 0 0 0 0 -20 -191
0 0 0 0 0 0 0 -8 0 -1 0 0 0 0 0 0 0 0 0 0 0 0 0 0 0 0 0 0 0 0 0 0 0 0 0 0 0 0 0 0 0 0 0 0
0 0 0 0 0 0 0 0 0 0 -1 0 0 0 0 0 0 0 0 0 0 0 0 0 0 0 -1 0 0 0 0 0 0 0 0 0 0 0 0 0 0 0 0 0
0 0 0 0 0 0 -3 -2 0 0 0 0 0 0 0 0 0 -1 -1 0 0 0 0 0 0 0 0 0 0 0 0 0 0 0 0 0 0 0 0 0 0 0 0 0
0 0 0 0 0 0 0 0 0 0 0 0 0 0 0 0 0 0 0 0 0 0 0 0 0 0 0 0 0 0 0 0 0 0 0 0 0 0 0 0 0 0 0 0
-5 -13 0 0 0 0 0 0 0 0 0 0 0 0 -1 0 0 0 0 0 0 0 0 0 0 0 0 0 0 0 0 0 0 0 0 0 0 0 0 0 0 0 0 0
0 0 0 0 0 0 0 0 0 0 0 0 0 0 0 0 0 0 0 0 0 0 0 0 0 0 0 0 0 0 0 0 0 0 0 0 0 0 0 0 -1 0 0 0
-7 0 0 0 -2 -21 -5 0 0 0 0 0 0 0 0 0 0 0 -1 0 -1 0 0 0 0 0 0 0 0 0 0 0 0 0 0 0 0 0 0 0 0 0 0 0
Wind_Speed
2 7 11 11 9 5 3 5 9 11 11 7 13 13 13 15 11 12 13 11 10 10 8 8 6 5 8 10 10 12 12 14 10 11 12 11 13 12 12 12 15 16 13 11
4 11 12 7 6 8 7 10 11 11 8 8 13 14 13 12 11 14 14 12 13 11 11 11 11 8 7 8 9 10 13 13 13 11 10 8 10 10 10 10 12 14 13 12
11 4 6 9 9 9 9 11 8 11 11 7 11 16 12 10 7 11 14 15 13 14 15 14 12 12 11 10 12 12 12 13 14 15 9 5 5 4 9 10 12 14 15 14
9 11 12 9 10 9 13 9 14 12 11 13 3 14 17 13 13 15 16 14 15 15 13 12 15 14 13 13 9 10 12 13 13 16 14 16 13 13 12 13 12 13 15 15
4 4 5 9 14 11 10 5 8 11 12 12 15 16 8 5 10 14 14 16 12 11 11 14 15 15 15 11 11 10 10 12 14 15 17 14 15 12 8 9 12 12 11 12
13 2 4 6 2 13 3 11 11 4 6 13 15 16 10 12 16 10 7 5 7 9 11 12 14 13 12 13 12 12 12 13 13 16 19 19 19 15 12 10 10 9 7 8
12 17 14 8 14 14 12 11 8 10 11 16 12 15 13 8 10 9 8 6 9 10 12 14 15 14 11 12 12 11 13 16 14 17 19 20 18 15 12 12 10 10 8 8
7 9 4 5 11 11 8 8 9 15 14 17 8 10 7 6 4 4 3 4 10 13 12 11 12 11 12 12 13 13 14 17 15 16 19 17 16 9 8 9 8 7 7 8
4 6 3 1 1 1 4 10 11 19 19 14 13 15 10 8 4 1 3 8 13 16 17 16 15 12 12 13 12 11 12 14 13 14 14 13 13 12 11 10 7 8 7 7
7 14 8 11 5 9 9 4 8 5 9 16 10 9 8 10 4 5 8 14 16 17 16 17 15 17 14 11 11 8 6 8 9 8 7 6 6 8 9 10 12 11 10 11
6 5 8 6 8 14 13 15 15 7 9 8 15 9 2 5 6 9 13 14 16 17 16 16 15 13 12 14 12 10 8 9 8 7 7 6 2 2 4 5 8 12 12 12
5 5 8 14 12 16 15 16 10 5 6 6 10 11 4 6 7 10 11 11 11 14 14 12 10 10 9 12 13 13 12 13 10 10 9 9 8 7 7 8 8 6 9 10
3 5 5 5 5 2 5 6 7 6 2 8 9 5 5 6 16 16 12 9 9 11 11 11 9 9 10 11 12 11 12 13 12 10 8 9 11 9 8 9 11 10 10 11
2 5 11 13 16 3 4 3 5 3 4 5 8 19 18 16 12 11 9 10 11 13 13 12 10 10 10 11 11 11 12 12 14 13 10 10 10 6 8 11 11 13 11 13
4 4 8 13 14 13 15 19 17 16 17 14 21 22 20 16 9 9 11 11 14 17 16 14 12 12 12 13 13 13 11 13 14 14 12 10 9 6 8 14 14 13 12 14
7 5 3 9 13 15 19 21 22 21 20 21 20 24 11 4 6 10 11 13 17 17 15 15 13 15 16 15 15 15 15 14 14 15 15 14 13 10 10 10 10 13 15 16
5 5 3 7 8 13 14 9 14 15 12 9 13 12 4 10 12 13 16 16 18 17 17 17 17 17 18 18 16 16 15 14 16 16 16 15 15 14 13 12 11 12 13 13
14 12 7 7 8 7 3 2 3 3 8 9 13 12 9 11 13 17 18 16 16 17 21 23 20 19 18 18 21 19 18 17 17 17 17 16 17 17 16 16 15 13 11 13
18 13 4 4 6 11 6 3 2 3 7 10 12 9 11 14 18 18 17 15 16 21 22 21 22 22 21 22 21 21 19 19 19 19 19 18 18 18 17 18 16 14 13 13
9 12 6 4 5 5 2 6 1 1 9 4 5 10 14 16 14 15 20 22 25 25 18 19 20 20 22 22 18 17 19 22 22 22 20 19 18 18 18 18 17 15 15 15
5 4 11 9 5 6 2 1 2 5 5 8 12 16 18 17 17 24 24 24 24 24 25 21 20 22 20 17 21 22 20 22 21 19 19 18 18 18 17 16 16 15 15 15
2 6 4 5 7 5 1 2 4 8 11 13 16 19 20 18 20 22 22 23 26 23 20 22 22 16 17 23 20 21 20 19 19 19 19 20 19 16 15 18 17 18 17 16
3 2 3 4 3 1 1 6 8 5 13 18 18 19 18 20 22 25 23 20 22 19 17 22 17 19 20 20 16 18 21 20 19 19 20 19 20 18 17 17 18 15 17 16
1 0 4 5 2 2 10 3 5 13 17 18 20 19 18 22 22 21 20 20 18 16 21 19 17 20 21 19 20 18 17 17 17 18 18 17 17 17 16 13 13 13 13 13
6 5 5 8 8 11 2 10 14 17 17 19 17 20 22 22 21 22 20 22 17 15 18 16 17 17 21 18 19 19 17 16 17 18 17 16 14 16 15 15 13 13 15 15
3 1 2 3 7 5 13 14 17 17 20 19 21 22 21 23 22 21 21 19 14 17 18 17 19 19 19 18 19 18 17 17 17 17 14 14 13 14 14 14 14 26 26 23
Wind_Direction
84 217 222 222 217 237 243 259 272 275 278 283 278 283 280 285 290 276 283 272 265 265 276 288 269 240 264 277 263 238 229 223 212 210 207 206 209 206 210 216 217 214 216 210
204 244 242 223 206 218 233 265 273 278 274 208 288 283 283 271 266 266 268 269 257 266 275 280 285 287 260 266 270 258 232 225 214 217 220 227 207 212 215 211 214 213 213 211
232 236 99 205 216 226 231 246 258 266 301 242 276 278 264 261 244 259 251 253 271 269 275 279 281 294 291 253 237 237 240 228 219 218 211 201 175 178 194 208 215 216 213 207
250 265 244 232 243 222 264 230 252 272 292 288 350 287 278 276 259 247 258 257 258 264 277 285 299 295 284 275 270 246 241 234 224 211 209 211 214 207 208 204 207 202 202 203
213 196 174 211 244 180 256 182 245 271 272 284 272 272 265 227 251 255 257 266 293 322 321 307 298 290 287 270 272 270 249 237 230 217 216 210 221 225 214 208 202 205 195 199
263 217 244 261 224 201 275 291 285 256 272 252 261 251 262 256 258 276 265 318 349 343 338 331 308 295 289 296 288 281 263 250 233 220 220 215 214 213 207 199 200 198 186 192
260 252 254 247 270 255 251 263 274 260 241 269 283 263 269 262 233 253 296 341 355 343 345 343 342 322 315 314 311 304 285 265 248 235 226 220 218 209 200 182 184 169 180 191
268 270 213 172 219 261 228 229 253 271 278 283 247 254 249 233 272 113 108 359 348 345 347 338 339 348 338 325 322 314 296 282 271 246 235 220 204 191 190 174 174 192 203 210
279 241 297 330 30 217 249 244 281 270 269 269 246 261 258 235 218 329 17 0 350 340 334 337 340 333 340 342 325 311 306 295 285 260 240 214 196 185 189 182 181 196 200 209
256 279 253 270 305 250 238 337 267 231 277 266 246 256 259 256 196 12 348 343 341 340 336 337 334 332 327 337 331 310 300 307 303 286 257 217 193 204 194 177 182 187 182 192
316 259 245 304 239 266 277 254 241 287 269 272 283 270 55 129 73 355 344 346 347 345 334 330 330 331 329 337 354 343 330 303 292 252 257 251 169 268 265 233 217 193 176 180
344 300 256 253 267 276 282 265 234 228 201 240 280 268 100 90 3 354 348 345 341 339 328 328 347 358 359 17 15 15 0 342 330 287 257 227 215 195 223 230 246 249 230 189
352 221 276 253 222 102 263 288 282 253 170 220 250 260 145 279 326 335 336 331 326 330 337 333 336 355 0 2 360 3 4 5 354 344 285 253 217 187 216 244 250 230 238 224
1 251 252 266 292 263 263 242 257 214 249 276 257 283 286 300 305 304 310 318 321 323 319 322 324 334 336 336 339 342 343 354 340 344 344 317 305 325 312 275 253 242 213 230
207 242 250 271 275 267 265 264 256 246 254 259 280 283 291 305 296 296 302 305 311 318 322 321 315 319 322 323 325 323 327 332 319 322 323 318 317 289 240 246 248 248 231 228
186 271 253 276 276 272 278 269 259 257 264 266 271 276 307 260 268 283 298 305 309 314 316 313 306 308 311 311 308 309 308 310 316 307 304 302 296 281 254 246 238 238 237 233
209 243 252 268 313 311 279 275 254 251 246 258 261 290 278 285 294 306 307 308 306 307 308 305 300 297 300 302 303 293 291 297 297 286 288 289 286 284 280 271 256 246 242 236
245 239 234 276 306 255 44 32 40 253 264 253 266 279 284 299 307 305 303 297 294 301 307 303 299 295 294 295 300 291 279 285 288 280 279 280 278 272 269 264 258 252 241 237
224 218 215 226 224 293 261 203 288 330 286 279 284 292 295 312 311 290 306 309 298 305 302 298 296 292 293 293 293 282 277 282 281 282 281 281 274 270 267 265 264 258 253 243
161 194 209 179 241 257 88 148 48 256 278 97 321 303 313 320 292 297 319 306 301 300 296 295 291 297 293 286 283 286 284 276 273 278 272 271 267 266 265 264 260 257 249 250
146 175 212 216 256 277 115 99 289 263 11 309 311 307 301 289 283 298 295 296 294 298 297 296 288 288 280 284 283 279 279 274 269 270 269 267 264 258 258 263 260 257 249 245
250 187 183 201 216 243 83 262 267 340 315 311 304 302 302 296 293 295 297 295 293 294 297 299 295 281 280 286 283 276 271 274 272 269 269 267 263 258 258 255 249 246 245 245
241 316 310 242 311 63 293 286 300 316 309 310 306 309 302 300 299 299 296 299 293 297 298 301 289 290 288 283 276 273 274 277 276 273 269 264 261 257 253 251 250 244 234 234
235 308 264 307 114 288 311 295 243 318 315 314 307 302 297 299 298 295 295 293 294 293 306 301 290 290 281 284 283 276 277 274 270 265 262 260 255 252 247 243 239 237 236 235
277 300 279 266 282 309 218 318 322 317 313 311 302 305 306 302 300 300 301 298 291 300 302 292 285 282 281 284 280 278 274 271 268 265 262 258 254 250 247 242 239 236 233 227
215 216 236 299 329 274 297 314 316 311 311 312 314 310 305 304 304 299 298 300 305 299 298 292 291 286 286 285 279 279 279 275 269 267 262 254 250 246 241 240 238 227 227 225